Tracking 27419 objects as of 9-Jun-2023
HD Live streaming from Space Station
objects crossing your sky now

STARLINK-1292

Track STARLINK-1292 now!
10-day predictions
STARLINK-1292 is classified as:


NORAD ID: 45394
Int'l Code: 2020-019AL
Perigee: 553.0 km
Apogee: 555.7 km
Inclination: 53.1 °
Period: 95.6 minutes
Semi major axis: 6925 km
RCS: Unknown
Launch date: March 18, 2020
Source: United States (US)
Launch site: AIR FORCE EASTERN TEST RANGE (AFETR)
Your satellite tracking list
Your tracking list is empty




NASA's NSSDC Master Catalog

Two Line Element Set (TLE):
1 45394U 20019AL  23159.47190941  .00001944  00000-0  14937-3 0  9997
2 45394  53.0556 339.2130 0001896  85.8556 274.2650 15.06401107178235
Source of the keplerian elements: AFSPC